Time,TemperatureF,DewpointF,PressureIn,WindDirection,WindDirectionDegrees,WindSpeedMPH,WindSpeedGustMPH,Humidity,HourlyPrecipIn,Conditions,Clouds,dailyrainin,SoftwareType,DateUTC
2013-02-06 00:01:00,48.8,44.8,30.07,SSE,159,0.0,0.0,86,0.00,,---,0.01,VWS V13.01,2013-02-06 06:01:00,
2013-02-06 00:06:00,48.7,45.0,30.07,SSE,159,0.0,0.0,87,0.00,,---,0.00,VWS V13.01,2013-02-06 06:06:00,
2013-02-06 00:11:00,48.5,44.8,30.07,SSE,159,0.0,0.0,87,0.00,,---,0.00,VWS V13.01,2013-02-06 06:11:00,
2013-02-06 00:16:00,48.3,44.6,30.07,SSE,159,0.0,0.0,87,0.00,,---,0.00,VWS V13.01,2013-02-06 06:16:00,
2013-02-06 00:21:00,48.2,44.5,30.07,SSE,159,0.0,0.0,87,0.00,,---,0.00,VWS V13.01,2013-02-06 06:21:00,
2013-02-06 00:26:00,48.1,44.4,30.08,SSE,159,0.0,0.0,87,0.00,,---,0.00,VWS V13.01,2013-02-06 06:26:00,
2013-02-06 00:31:00,47.9,44.2,30.07,SSE,159,0.0,0.0,87,0.00,,---,0.00,VWS V13.01,2013-02-06 06:31:00,
2013-02-06 00:36:00,47.8,44.1,30.07,SSE,159,0.0,0.0,87,0.00,,---,0.00,VWS V13.01,2013-02-06 06:36:00,
2013-02-06 00:41:00,47.6,43.9,30.07,SSE,159,0.0,0.0,87,0.00,,---,0.00,VWS V13.01,2013-02-06 06:41:00,
2013-02-06 00:46:00,47.5,43.8,30.08,SSE,159,0.0,0.0,87,0.00,,---,0.00,VWS V13.01,2013-02-06 06:46:00,
2013-02-06 00:52:00,47.3,43.6,30.08,SSE,159,0.0,0.0,87,0.00,,---,0.00,VWS V13.01,2013-02-06 06:52:00,
2013-02-06 00:57:00,47.1,43.4,30.08,SSE,159,0.0,0.0,87,0.00,,---,0.00,VWS V13.01,2013-02-06 06:57:00,
2013-02-06 01:02:00,47.0,43.3,30.08,SSE,159,0.0,0.0,87,0.00,,---,0.00,VWS V13.01,2013-02-06 07:02:00,
2013-02-06 01:07:00,46.8,43.1,30.08,SSE,159,0.0,0.0,87,0.00,,---,0.00,VWS V13.01,2013-02-06 07:07:00,
2013-02-06 01:12:00,46.8,43.1,30.08,SSE,159,0.0,0.0,87,0.00,,---,0.00,VWS V13.01,2013-02-06 07:12:00,
2013-02-06 01:17:00,46.7,43.3,30.08,SSE,159,0.0,0.0,88,0.00,,---,0.00,VWS V13.01,2013-02-06 07:17:00,
2013-02-06 01:22:00,46.6,43.2,30.08,SSE,159,0.0,0.0,88,0.00,,---,0.00,VWS V13.01,2013-02-06 07:22:00,
2013-02-06 01:27:00,46.5,43.1,30.08,SSE,159,0.0,0.0,88,0.00,,---,0.00,VWS V13.01,2013-02-06 07:27:00,
2013-02-06 01:32:00,46.4,43.0,30.08,SSE,159,0.0,0.0,88,0.00,,---,0.00,VWS V13.01,2013-02-06 07:32:00,
2013-02-06 01:37:00,46.4,43.0,30.08,SSE,159,0.0,0.0,88,0.00,,---,0.00,VWS V13.01,2013-02-06 07:37:00,
2013-02-06 01:43:00,46.3,43.0,30.08,SSE,159,0.0,0.0,88,0.00,,---,0.00,VWS V13.01,2013-02-06 07:43:00,
2013-02-06 01:48:00,46.3,43.0,30.08,SSE,159,0.0,0.0,88,0.00,,---,0.00,VWS V13.01,2013-02-06 07:48:00,
2013-02-06 01:53:00,46.2,42.8,30.08,SSE,159,0.0,0.0,88,0.00,,---,0.00,VWS V13.01,2013-02-06 07:53:00,
2013-02-06 01:58:00,46.1,42.8,30.08,SSE,159,0.0,0.0,88,0.00,,---,0.00,VWS V13.01,2013-02-06 07:58:00,
2013-02-06 02:03:00,46.1,43.0,30.08,NE,56,0.0,4.0,89,0.00,,---,0.00,VWS V13.01,2013-02-06 08:03:00,
2013-02-06 02:08:00,46.1,43.0,30.08,East,94,0.0,3.0,89,0.00,,---,0.00,VWS V13.01,2013-02-06 08:08:00,
2013-02-06 02:13:00,46.1,43.0,30.08,East,94,0.0,3.0,89,0.00,,---,0.00,VWS V13.01,2013-02-06 08:13:00,
2013-02-06 02:18:00,46.1,43.0,30.08,East,94,0.0,3.0,89,0.00,,---,0.00,VWS V13.01,2013-02-06 08:18:00,
2013-02-06 02:23:00,46.0,43.0,30.08,East,94,0.0,3.0,89,0.00,,---,0.00,VWS V13.01,2013-02-06 08:23:00,
2013-02-06 02:28:00,46.0,43.0,30.08,East,94,0.0,3.0,89,0.00,,---,0.00,VWS V13.01,2013-02-06 08:28:00,
2013-02-06 02:33:00,46.0,43.2,30.08,East,94,0.0,3.0,90,0.00,,---,0.00,VWS V13.01,2013-02-06 08:33:00,
2013-02-06 02:38:00,46.0,43.2,30.08,East,94,0.0,0.0,90,0.00,,---,0.00,VWS V13.01,2013-02-06 08:38:00,
2013-02-06 02:43:00,46.0,43.2,30.08,East,94,1.0,2.0,90,0.00,,---,0.00,VWS V13.01,2013-02-06 08:43:00,
2013-02-06 02:48:00,46.0,43.2,30.08,East,92,0.0,3.0,90,0.00,,---,0.00,VWS V13.01,2013-02-06 08:48:00,
2013-02-06 02:54:00,46.1,43.3,30.08,East,92,0.0,3.0,90,0.00,,---,0.00,VWS V13.01,2013-02-06 08:54:00,
2013-02-06 02:59:00,46.0,43.2,30.08,East,90,0.0,4.0,90,0.00,,---,0.00,VWS V13.01,2013-02-06 08:59:00,
2013-02-06 03:05:00,46.0,43.2,30.09,NE,42,1.0,6.0,90,0.00,,---,0.00,VWS V13.01,2013-02-06 09:05:00,
2013-02-06 03:10:00,46.0,43.2,30.09,NE,42,0.0,3.0,90,0.00,,---,0.00,VWS V13.01,2013-02-06 09:10:00,
2013-02-06 03:15:00,46.0,43.2,30.08,NE,42,0.0,3.0,90,0.00,,---,0.00,VWS V13.01,2013-02-06 09:15:00,
2013-02-06 03:20:00,45.7,42.9,30.08,NE,41,0.0,3.0,90,0.00,,---,0.00,VWS V13.01,2013-02-06 09:20:00,
2013-02-06 03:25:00,45.5,42.5,30.08,NE,41,0.0,3.0,89,0.00,,---,0.00,VWS V13.01,2013-02-06 09:25:00,
2013-02-06 03:30:00,45.4,42.3,30.09,NE,42,0.0,3.0,89,0.00,,---,0.00,VWS V13.01,2013-02-06 09:30:00,
2013-02-06 03:35:00,45.1,42.1,30.08,NE,42,1.0,3.0,89,0.00,,---,0.00,VWS V13.01,2013-02-06 09:35:00,
2013-02-06 03:40:00,44.9,41.6,30.08,NE,42,0.0,3.0,88,0.00,,---,0.00,VWS V13.01,2013-02-06 09:40:00,
2013-02-06 03:45:00,44.7,41.4,30.08,NE,41,0.0,3.0,88,0.00,,---,0.00,VWS V13.01,2013-02-06 09:45:00,
2013-02-06 03:51:00,44.6,41.0,30.08,NE,41,0.0,3.0,87,0.00,,---,0.00,VWS V13.01,2013-02-06 09:51:00,
2013-02-06 03:56:00,44.5,40.9,30.08,NE,42,0.0,3.0,87,0.00,,---,0.00,VWS V13.01,2013-02-06 09:56:00,
2013-02-06 04:01:00,44.5,40.6,30.08,NE,41,0.0,3.0,86,0.00,,---,0.00,VWS V13.01,2013-02-06 10:01:00,
2013-02-06 04:06:00,44.5,40.6,30.09,NE,41,0.0,0.0,86,0.00,,---,0.00,VWS V13.01,2013-02-06 10:06:00,
2013-02-06 04:11:00,44.5,40.6,30.09,NE,42,0.0,0.0,86,0.00,,---,0.00,VWS V13.01,2013-02-06 10:11:00,
2013-02-06 04:16:00,44.5,40.3,30.09,NE,42,0.0,0.0,85,0.00,,---,0.00,VWS V13.01,2013-02-06 10:16:00,
2013-02-06 04:21:00,44.5,40.3,30.09,NE,41,0.0,0.0,85,0.00,,---,0.00,VWS V13.01,2013-02-06 10:21:00,
2013-02-06 04:26:00,44.4,40.2,30.10,NE,42,0.0,0.0,85,0.00,,---,0.00,VWS V13.01,2013-02-06 10:26:00,
2013-02-06 04:31:00,44.2,39.7,30.10,NE,42,0.0,0.0,84,0.00,,---,0.00,VWS V13.01,2013-02-06 10:31:00,
2013-02-06 04:36:00,44.0,39.5,30.10,NE,42,0.0,0.0,84,0.00,,---,0.00,VWS V13.01,2013-02-06 10:36:00,
2013-02-06 04:41:00,43.8,39.3,30.10,ENE,71,5.0,5.0,84,0.00,,---,0.00,VWS V13.01,2013-02-06 10:41:00,
2013-02-06 04:46:00,43.9,39.1,30.10,East,98,2.0,5.0,83,0.00,,---,0.00,VWS V13.01,2013-02-06 10:46:00,
2013-02-06 04:51:00,44.0,38.9,30.10,East,98,0.0,5.0,82,0.00,,---,0.00,VWS V13.01,2013-02-06 10:51:00,
2013-02-06 04:56:00,44.2,38.8,30.11,East,98,0.0,5.0,81,0.00,,---,0.00,VWS V13.01,2013-02-06 10:56:00,
2013-02-06 05:01:00,44.4,38.6,30.11,East,98,0.0,5.0,80,0.00,,---,0.00,VWS V13.01,2013-02-06 11:01:00,
2013-02-06 05:07:00,44.5,38.4,30.12,East,98,0.0,0.0,79,0.00,,---,0.00,VWS V13.01,2013-02-06 11:07:00,
2013-02-06 05:12:00,44.5,38.4,30.12,East,98,0.0,0.0,79,0.00,,---,0.00,VWS V13.01,2013-02-06 11:12:00,
2013-02-06 05:17:00,44.5,38.1,30.12,East,98,0.0,2.0,78,0.00,,---,0.00,VWS V13.01,2013-02-06 11:17:00,
2013-02-06 05:22:00,44.4,37.7,30.12,ESE,115,0.0,5.0,77,0.00,,---,0.00,VWS V13.01,2013-02-06 11:22:00,
2013-02-06 05:27:00,44.4,37.3,30.13,ESE,116,0.0,5.0,76,0.00,,---,0.00,VWS V13.01,2013-02-06 11:27:00,
2013-02-06 05:32:00,44.3,37.2,30.12,ESE,115,0.0,5.0,76,0.00,,---,0.00,VWS V13.01,2013-02-06 11:32:00,
2013-02-06 05:37:00,44.3,36.9,30.13,East,84,0.0,4.0,75,0.00,,---,0.00,VWS V13.01,2013-02-06 11:37:00,
2013-02-06 05:43:00,44.4,36.7,30.13,East,84,0.0,4.0,74,0.00,,---,0.00,VWS V13.01,2013-02-06 11:43:00,
2013-02-06 05:48:00,44.5,36.7,30.13,East,84,0.0,4.0,74,0.00,,---,0.00,VWS V13.01,2013-02-06 11:48:00,
2013-02-06 05:53:00,44.5,36.7,30.13,East,84,0.0,4.0,74,0.00,,---,0.00,VWS V13.01,2013-02-06 11:53:00,
2013-02-06 05:58:00,44.5,36.7,30.14,East,84,0.0,4.0,74,0.00,,---,0.00,VWS V13.01,2013-02-06 11:58:00,
2013-02-06 06:03:00,44.4,36.7,30.14,East,84,0.0,4.0,74,0.00,,---,0.00,VWS V13.01,2013-02-06 12:03:00,
2013-02-06 06:08:00,44.3,36.5,30.14,East,84,0.0,1.0,74,0.00,,---,0.00,VWS V13.01,2013-02-06 12:08:00,
2013-02-06 06:13:00,44.1,36.7,30.15,East,84,0.0,1.0,75,0.00,,---,0.00,VWS V13.01,2013-02-06 12:13:00,
2013-02-06 06:18:00,43.8,36.4,30.15,East,84,0.0,1.0,75,0.00,,---,0.00,VWS V13.01,2013-02-06 12:18:00,
2013-02-06 06:23:00,43.6,36.5,30.15,South,174,0.0,6.0,76,0.00,,---,0.00,VWS V13.01,2013-02-06 12:23:00,
2013-02-06 06:28:00,43.4,36.3,30.15,South,173,0.0,6.0,76,0.00,,---,0.00,VWS V13.01,2013-02-06 12:28:00,
2013-02-06 06:33:00,43.3,36.6,30.16,South,169,4.0,6.0,77,0.00,,---,0.00,VWS V13.01,2013-02-06 12:33:00,
2013-02-06 06:38:00,43.3,36.3,30.15,ESE,117,0.0,4.0,76,0.00,,---,0.00,VWS V13.01,2013-02-06 12:38:00,
2013-02-06 06:43:00,43.3,35.9,30.16,East,92,0.0,5.0,75,0.00,,---,0.00,VWS V13.01,2013-02-06 12:43:00,
2013-02-06 06:48:00,43.4,35.7,30.16,East,99,4.0,5.0,74,0.00,,---,0.00,VWS V13.01,2013-02-06 12:48:00,
2013-02-06 06:53:00,43.5,35.8,30.16,SE,129,1.0,7.0,74,0.00,,---,0.00,VWS V13.01,2013-02-06 12:53:00,
2013-02-06 06:58:00,43.6,35.5,30.15,East,84,3.0,9.0,73,0.00,,---,0.00,VWS V13.01,2013-02-06 12:58:00,
2013-02-06 07:03:00,43.7,35.6,30.15,ESE,103,3.0,9.0,73,0.00,,---,0.00,VWS V13.01,2013-02-06 13:03:00,
2013-02-06 07:08:00,43.8,35.7,30.15,East,86,0.0,7.0,73,0.00,,---,0.00,VWS V13.01,2013-02-06 13:08:00,
2013-02-06 07:13:00,43.8,35.7,30.15,ENE,69,4.0,7.0,73,0.00,,---,0.00,VWS V13.01,2013-02-06 13:13:00,
2013-02-06 07:19:00,43.8,35.7,30.15,ENE,67,0.0,7.0,73,0.00,,---,0.00,VWS V13.01,2013-02-06 13:19:00,
2013-02-06 07:24:00,43.7,35.6,30.16,ESE,105,0.0,7.0,73,0.00,,---,0.00,VWS V13.01,2013-02-06 13:24:00,
2013-02-06 07:29:00,43.7,35.3,30.17,ENE,62,0.0,7.0,72,0.00,,---,0.00,VWS V13.01,2013-02-06 13:29:00,
2013-02-06 07:34:00,43.7,35.3,30.17,ESE,111,4.0,9.0,72,0.00,,---,0.00,VWS V13.01,2013-02-06 13:34:00,
2013-02-06 07:39:00,43.7,35.3,30.17,SSE,148,0.0,4.0,72,0.00,,---,0.00,VWS V13.01,2013-02-06 13:39:00,
2013-02-06 07:44:00,43.7,35.3,30.16,ESE,123,0.0,6.0,72,0.00,,---,0.00,VWS V13.01,2013-02-06 13:44:00,
2013-02-06 07:49:00,43.7,34.9,30.17,East,98,2.0,7.0,71,0.00,,---,0.00,VWS V13.01,2013-02-06 13:49:00,
2013-02-06 07:54:00,43.8,35.0,30.17,East,100,0.0,7.0,71,0.00,,---,0.00,VWS V13.01,2013-02-06 13:54:00,
2013-02-06 07:59:00,43.8,35.0,30.17,SE,140,0.0,7.0,71,0.00,,---,0.00,VWS V13.01,2013-02-06 13:59:00,
2013-02-06 08:04:00,43.8,35.0,30.17,ESE,119,2.0,7.0,71,0.00,,---,0.00,VWS V13.01,2013-02-06 14:04:00,
2013-02-06 08:09:00,43.9,35.1,30.17,SE,124,0.0,4.0,71,0.00,,---,0.00,VWS V13.01,2013-02-06 14:09:00,
2013-02-06 08:14:00,44.0,35.2,30.18,SSE,155,0.0,5.0,71,0.00,,---,0.00,VWS V13.01,2013-02-06 14:14:00,
2013-02-06 08:19:00,44.1,35.0,30.17,SSE,149,0.0,8.0,70,0.00,,---,0.00,VWS V13.01,2013-02-06 14:19:00,
2013-02-06 08:24:00,44.3,35.2,30.17,East,90,2.0,8.0,70,0.00,,---,0.00,VWS V13.01,2013-02-06 14:24:00,
2013-02-06 08:29:00,44.4,35.6,30.17,East,95,7.0,8.0,71,0.00,,---,0.00,VWS V13.01,2013-02-06 14:29:00,
2013-02-06 08:34:00,44.6,35.8,30.17,ESE,102,5.0,11.0,71,0.00,,---,0.00,VWS V13.01,2013-02-06 14:34:00,
2013-02-06 08:39:00,44.8,35.6,30.16,ENE,63,9.0,10.0,70,0.00,,---,0.00,VWS V13.01,2013-02-06 14:39:00,
2013-02-06 08:44:00,45.0,36.2,30.16,ESE,113,6.0,12.0,71,0.00,,---,0.00,VWS V13.01,2013-02-06 14:44:00,
2013-02-06 08:49:00,45.1,36.3,30.17,East,99,0.0,12.0,71,0.00,,---,0.00,VWS V13.01,2013-02-06 14:49:00,
2013-02-06 08:54:00,45.3,36.5,30.17,ENE,66,3.0,12.0,71,0.00,,---,0.00,VWS V13.01,2013-02-06 14:54:00,
2013-02-06 08:59:00,45.5,36.7,30.17,ENE,72,3.0,12.0,71,0.00,,---,0.00,VWS V13.01,2013-02-06 14:59:00,
2013-02-06 09:04:00,45.8,36.6,30.17,ESE,105,4.0,12.0,70,0.00,,---,0.00,VWS V13.01,2013-02-06 15:04:00,
2013-02-06 09:09:00,46.1,36.9,30.17,SE,141,6.0,11.0,70,0.00,,---,0.00,VWS V13.01,2013-02-06 15:09:00,
2013-02-06 09:14:00,46.7,36.7,30.17,SE,137,13.0,13.0,68,0.00,,---,0.00,VWS V13.01,2013-02-06 15:14:00,
2013-02-06 09:19:00,47.4,37.4,30.17,ESE,121,4.0,13.0,68,0.00,,---,0.00,VWS V13.01,2013-02-06 15:19:00,
2013-02-06 09:24:00,47.8,37.4,30.17,ESE,115,4.0,13.0,67,0.00,,---,0.00,VWS V13.01,2013-02-06 15:24:00,
2013-02-06 09:29:00,47.8,37.4,30.17,ESE,109,3.0,13.0,67,0.00,,---,0.00,VWS V13.01,2013-02-06 15:29:00,
2013-02-06 09:34:00,47.6,37.2,30.17,SE,143,0.0,13.0,67,0.00,,---,0.00,VWS V13.01,2013-02-06 15:34:00,
2013-02-06 09:39:00,47.5,37.1,30.18,SE,125,5.0,10.0,67,0.00,,---,0.00,VWS V13.01,2013-02-06 15:39:00,
2013-02-06 09:45:00,47.4,37.0,30.18,ESE,117,1.0,10.0,67,0.00,,---,0.00,VWS V13.01,2013-02-06 15:45:00,
2013-02-06 09:50:00,47.7,37.3,30.17,SE,142,6.0,12.0,67,0.00,,---,0.00,VWS V13.01,2013-02-06 15:50:00,
2013-02-06 09:55:00,48.2,37.8,30.18,ESE,115,3.0,12.0,67,0.00,,---,0.00,VWS V13.01,2013-02-06 15:55:00,
2013-02-06 10:00:00,48.5,38.1,30.18,SSE,157,5.0,12.0,67,0.00,,---,0.00,VWS V13.01,2013-02-06 16:00:00,
2013-02-06 10:05:00,48.7,38.2,30.18,ESE,118,6.0,12.0,67,0.00,,---,0.00,VWS V13.01,2013-02-06 16:05:00,
2013-02-06 10:10:00,49.2,38.7,30.17,NNE,26,2.0,8.0,67,0.00,,---,0.00,VWS V13.01,2013-02-06 16:10:00,
2013-02-06 10:15:00,49.4,38.9,30.18,East,98,4.0,12.0,67,0.00,,---,0.00,VWS V13.01,2013-02-06 16:15:00,
2013-02-06 10:20:00,49.8,38.9,30.18,SSE,152,3.0,12.0,66,0.00,,---,0.00,VWS V13.01,2013-02-06 16:20:00,
2013-02-06 10:25:00,50.0,40.2,30.18,SSE,157,4.0,12.0,69,0.00,,---,0.00,VWS V13.01,2013-02-06 16:25:00,
2013-02-06 10:30:00,50.1,39.2,30.17,South,170,4.0,12.0,66,0.00,,---,0.00,VWS V13.01,2013-02-06 16:30:00,
2013-02-06 10:35:00,50.0,39.1,30.17,ESE,120,12.0,12.0,66,0.00,,---,0.00,VWS V13.01,2013-02-06 16:35:00,
2013-02-06 10:40:00,49.9,39.4,30.17,ESE,103,3.0,10.0,67,0.00,,---,0.00,VWS V13.01,2013-02-06 16:40:00,
2013-02-06 10:45:00,50.5,40.0,30.17,South,171,1.0,10.0,67,0.00,,---,0.00,VWS V13.01,2013-02-06 16:45:00,
2013-02-06 10:50:00,50.9,40.3,30.17,South,178,1.0,11.0,67,0.00,,---,0.00,VWS V13.01,2013-02-06 16:50:00,
2013-02-06 10:55:00,51.9,41.7,30.16,SSE,156,2.0,11.0,68,0.00,,---,0.00,VWS V13.01,2013-02-06 16:55:00,
2013-02-06 11:00:00,52.2,41.2,30.16,NNE,22,3.0,13.0,66,0.00,,---,0.00,VWS V13.01,2013-02-06 17:00:00,
2013-02-06 11:05:00,52.1,40.7,30.16,East,90,3.0,13.0,65,0.00,,---,0.00,VWS V13.01,2013-02-06 17:05:00,
2013-02-06 11:10:00,52.3,40.9,30.16,ESE,102,1.0,11.0,65,0.00,,---,0.00,VWS V13.01,2013-02-06 17:10:00,
2013-02-06 11:15:00,52.2,41.2,30.16,ESE,114,3.0,12.0,66,0.00,,---,0.00,VWS V13.01,2013-02-06 17:15:00,
2013-02-06 11:20:00,52.1,41.1,30.16,SE,145,4.0,12.0,66,0.00,,---,0.00,VWS V13.01,2013-02-06 17:20:00,
2013-02-06 11:25:00,52.0,41.4,30.15,ESE,103,3.0,12.0,67,0.00,,---,0.00,VWS V13.01,2013-02-06 17:25:00,
2013-02-06 11:30:00,52.1,41.5,30.15,East,92,0.0,12.0,67,0.00,,---,0.00,VWS V13.01,2013-02-06 17:30:00,
2013-02-06 11:35:00,52.3,41.3,30.14,SSE,155,4.0,12.0,66,0.00,,---,0.00,VWS V13.01,2013-02-06 17:35:00,
2013-02-06 11:40:00,52.1,41.5,30.14,SSE,148,1.0,10.0,67,0.00,,---,0.00,VWS V13.01,2013-02-06 17:40:00,
2013-02-06 11:45:00,52.5,41.5,30.13,ESE,105,1.0,10.0,66,0.00,,---,0.00,VWS V13.01,2013-02-06 17:45:00,
2013-02-06 11:51:00,52.5,41.9,30.13,ESE,109,4.0,10.0,67,0.00,,---,0.00,VWS V13.01,2013-02-06 17:51:00,
2013-02-06 11:55:00,52.3,41.7,30.13,SSE,153,4.0,10.0,67,0.00,,---,0.00,VWS V13.01,2013-02-06 17:55:00,
2013-02-06 12:01:00,52.4,41.8,30.13,SSE,153,0.0,10.0,67,0.00,,---,0.00,VWS V13.01,2013-02-06 18:01:00,
2013-02-06 12:06:00,52.4,41.8,30.14,ESE,123,3.0,8.0,67,0.00,,---,0.00,VWS V13.01,2013-02-06 18:06:00,
2013-02-06 12:11:00,52.6,42.0,30.13,SE,140,0.0,8.0,67,0.00,,---,0.00,VWS V13.01,2013-02-06 18:11:00,
2013-02-06 12:16:00,52.9,41.9,30.13,SE,140,3.0,8.0,66,0.00,,---,0.00,VWS V13.01,2013-02-06 18:16:00,
2013-02-06 12:21:00,52.9,41.9,30.13,ESE,103,3.0,8.0,66,0.00,,---,0.00,VWS V13.01,2013-02-06 18:21:00,
2013-02-06 12:26:00,53.1,42.5,30.13,ESE,123,0.0,8.0,67,0.00,,---,0.00,VWS V13.01,2013-02-06 18:26:00,
2013-02-06 12:31:00,54.2,43.1,30.13,SE,130,4.0,11.0,66,0.00,,---,0.00,VWS V13.01,2013-02-06 18:31:00,
2013-02-06 12:36:00,54.9,43.4,30.12,South,178,3.0,5.0,65,0.00,,---,0.00,VWS V13.01,2013-02-06 18:36:00,
2013-02-06 12:41:00,55.6,44.4,30.12,East,92,2.0,6.0,66,0.00,,---,0.00,VWS V13.01,2013-02-06 18:41:00,
2013-02-06 12:46:00,56.0,44.4,30.12,East,90,5.0,7.0,65,0.00,,---,0.00,VWS V13.01,2013-02-06 18:46:00,
2013-02-06 12:51:00,55.2,43.2,30.11,SE,132,6.0,12.0,64,0.00,,---,0.00,VWS V13.01,2013-02-06 18:51:00,
2013-02-06 12:56:00,54.7,43.2,30.11,ESE,111,9.0,12.0,65,0.00,,---,0.00,VWS V13.01,2013-02-06 18:56:00,
2013-02-06 13:01:00,54.4,43.3,30.11,East,89,4.0,12.0,66,0.00,,---,0.00,VWS V13.01,2013-02-06 19:01:00,
2013-02-06 13:06:00,54.5,43.4,30.11,ESE,120,0.0,3.0,66,0.00,,---,0.00,VWS V13.01,2013-02-06 19:06:00,
2013-02-06 13:11:00,54.9,43.8,30.11,SE,136,3.0,10.0,66,0.00,,---,0.00,VWS V13.01,2013-02-06 19:11:00,
2013-02-06 13:16:00,54.9,43.8,30.10,SSE,153,3.0,10.0,66,0.00,,---,0.00,VWS V13.01,2013-02-06 19:16:00,
2013-02-06 13:21:00,54.6,43.5,30.10,ENE,74,4.0,11.0,66,0.00,,---,0.00,VWS V13.01,2013-02-06 19:21:00,
2013-02-06 13:26:00,54.6,43.5,30.10,ESE,113,1.0,11.0,66,0.00,,---,0.00,VWS V13.01,2013-02-06 19:26:00,
2013-02-06 13:31:00,55.2,43.7,30.10,SE,128,4.0,11.0,65,0.00,,---,0.00,VWS V13.01,2013-02-06 19:31:00,
2013-02-06 13:36:00,56.2,44.6,30.10,East,100,3.0,6.0,65,0.00,,---,0.00,VWS V13.01,2013-02-06 19:36:00,
2013-02-06 13:41:00,56.2,44.6,30.09,ESE,119,1.0,6.0,65,0.00,,---,0.00,VWS V13.01,2013-02-06 19:41:00,
2013-02-06 13:46:00,55.7,44.1,30.09,ESE,105,4.0,8.0,65,0.00,,---,0.00,VWS V13.01,2013-02-06 19:46:00,
2013-02-06 13:51:00,55.5,43.9,30.09,SSE,150,2.0,10.0,65,0.00,,---,0.00,VWS V13.01,2013-02-06 19:51:00,
2013-02-06 13:56:00,55.4,44.2,30.09,SSE,158,3.0,10.0,66,0.00,,---,0.00,VWS V13.01,2013-02-06 19:56:00,
2013-02-06 14:01:00,55.7,44.5,30.09,ESE,103,3.0,10.0,66,0.00,,---,0.00,VWS V13.01,2013-02-06 20:01:00,
2013-02-06 14:06:00,56.4,45.2,30.08,SSE,163,4.0,10.0,66,0.00,,---,0.00,VWS V13.01,2013-02-06 20:06:00,
2013-02-06 14:12:00,56.2,44.6,30.08,SSE,153,5.0,12.0,65,0.00,,---,0.00,VWS V13.01,2013-02-06 20:12:00,
2013-02-06 14:17:00,55.9,44.7,30.08,SSE,149,6.0,13.0,66,0.00,,---,0.00,VWS V13.01,2013-02-06 20:17:00,
2013-02-06 14:22:00,55.7,44.5,30.07,ESE,117,2.0,13.0,66,0.00,,---,0.00,VWS V13.01,2013-02-06 20:22:00,
2013-02-06 14:27:00,55.9,45.1,30.07,ESE,112,3.0,13.0,67,0.00,,---,0.00,VWS V13.01,2013-02-06 20:27:00,
2013-02-06 14:32:00,56.6,45.8,30.06,ESE,111,4.0,13.0,67,0.00,,---,0.00,VWS V13.01,2013-02-06 20:32:00,
2013-02-06 14:37:00,57.4,45.8,30.06,East,80,12.0,13.0,65,0.00,,---,0.00,VWS V13.01,2013-02-06 20:37:00,
2013-02-06 14:42:00,57.8,46.1,30.06,SSE,162,3.0,14.0,65,0.00,,---,0.00,VWS V13.01,2013-02-06 20:42:00,
2013-02-06 14:47:00,58.0,45.9,30.06,SE,136,3.0,14.0,64,0.00,,---,0.00,VWS V13.01,2013-02-06 20:47:00,
2013-02-06 14:52:00,58.0,46.3,30.06,SE,134,3.0,14.0,65,0.00,,---,0.00,VWS V13.01,2013-02-06 20:52:00,
2013-02-06 14:57:00,57.6,45.5,30.06,South,177,4.0,14.0,64,0.00,,---,0.00,VWS V13.01,2013-02-06 20:57:00,
2013-02-06 15:02:00,57.1,46.3,30.06,SE,132,4.0,14.0,67,0.00,,---,0.00,VWS V13.01,2013-02-06 21:02:00,
2013-02-06 15:07:00,57.0,45.8,30.06,NE,56,9.0,14.0,66,0.00,,---,0.00,VWS V13.01,2013-02-06 21:07:00,
2013-02-06 15:12:00,57.0,46.2,30.06,ESE,117,5.0,14.0,67,0.00,,---,0.00,VWS V13.01,2013-02-06 21:12:00,
2013-02-06 15:17:00,56.8,45.6,30.06,East,79,4.0,14.0,66,0.00,,---,0.00,VWS V13.01,2013-02-06 21:17:00,
2013-02-06 15:22:00,56.5,45.3,30.06,ESE,106,4.0,14.0,66,0.00,,---,0.00,VWS V13.01,2013-02-06 21:22:00,
2013-02-06 15:27:00,56.1,45.3,30.05,East,99,4.0,14.0,67,0.00,,---,0.00,VWS V13.01,2013-02-06 21:27:00,
2013-02-06 15:32:00,56.1,45.7,30.05,SSE,159,3.0,14.0,68,0.00,,---,0.00,VWS V13.01,2013-02-06 21:32:00,
2013-02-06 15:37:00,56.1,45.3,30.05,SE,138,4.0,13.0,67,0.00,,---,0.00,VWS V13.01,2013-02-06 21:37:00,
2013-02-06 15:43:00,55.8,45.4,30.05,SSE,148,4.0,13.0,68,0.00,,---,0.00,VWS V13.01,2013-02-06 21:43:00,
2013-02-06 15:48:00,55.6,45.2,30.05,SE,139,0.0,13.0,68,0.00,,---,0.00,VWS V13.01,2013-02-06 21:48:00,
2013-02-06 15:53:00,55.4,45.4,30.05,SE,138,5.0,13.0,69,0.00,,---,0.00,VWS V13.01,2013-02-06 21:53:00,
2013-02-06 15:58:00,55.5,45.5,30.05,SSE,153,4.0,13.0,69,0.00,,---,0.00,VWS V13.01,2013-02-06 21:58:00,
2013-02-06 16:03:00,55.4,45.8,30.05,SE,126,2.0,13.0,70,0.00,,---,0.00,VWS V13.01,2013-02-06 22:03:00,
2013-02-06 16:08:00,55.3,45.3,30.05,SE,133,2.0,15.0,69,0.00,,---,0.00,VWS V13.01,2013-02-06 22:08:00,
2013-02-06 16:13:00,55.2,45.6,30.05,ESE,115,5.0,15.0,70,0.00,,---,0.00,VWS V13.01,2013-02-06 22:13:00,
2013-02-06 16:18:00,55.1,45.1,30.05,SE,144,1.0,15.0,69,0.00,,---,0.00,VWS V13.01,2013-02-06 22:18:00,
2013-02-06 16:23:00,55.0,45.4,30.05,SSE,162,4.0,15.0,70,0.00,,---,0.00,VWS V13.01,2013-02-06 22:23:00,
2013-02-06 16:28:00,54.8,45.2,30.04,East,95,3.0,15.0,70,0.00,,---,0.00,VWS V13.01,2013-02-06 22:28:00,
2013-02-06 16:33:00,54.6,45.0,30.05,SE,134,2.0,15.0,70,0.00,,---,0.00,VWS V13.01,2013-02-06 22:33:00,
2013-02-06 16:38:00,54.5,45.3,30.04,ESE,110,3.0,10.0,71,0.00,,---,0.00,VWS V13.01,2013-02-06 22:38:00,
2013-02-06 16:43:00,54.4,45.2,30.04,SE,132,0.0,10.0,71,0.00,,---,0.00,VWS V13.01,2013-02-06 22:43:00,
2013-02-06 16:48:00,54.2,45.0,30.04,SE,134,6.0,10.0,71,0.00,,---,0.00,VWS V13.01,2013-02-06 22:48:00,
2013-02-06 16:53:00,54.2,45.4,30.04,SE,132,2.0,10.0,72,0.00,,---,0.00,VWS V13.01,2013-02-06 22:53:00,
2013-02-06 16:58:00,54.1,45.3,30.04,SE,132,4.0,10.0,72,0.00,,---,0.00,VWS V13.01,2013-02-06 22:58:00,
2013-02-06 17:03:00,54.1,45.3,30.04,SE,130,0.0,10.0,72,0.00,,---,0.00,VWS V13.01,2013-02-06 23:03:00,
2013-02-06 17:08:00,54.0,45.2,30.05,SE,130,0.0,6.0,72,0.00,,---,0.00,VWS V13.01,2013-02-06 23:08:00,
2013-02-06 17:13:00,53.9,45.1,30.05,SE,141,2.0,10.0,72,0.00,,---,0.00,VWS V13.01,2013-02-06 23:13:00,
2013-02-06 17:18:00,53.9,45.1,30.04,SE,139,4.0,10.0,72,0.00,,---,0.00,VWS V13.01,2013-02-06 23:18:00,
2013-02-06 17:23:00,53.7,44.9,30.05,SE,130,1.0,10.0,72,0.00,,---,0.00,VWS V13.01,2013-02-06 23:23:00,
2013-02-06 17:28:00,53.6,45.2,30.05,ESE,119,2.0,10.0,73,0.00,,---,0.00,VWS V13.01,2013-02-06 23:28:00,
2013-02-06 17:33:00,53.5,45.1,30.05,ESE,113,3.0,10.0,73,0.00,,---,0.00,VWS V13.01,2013-02-06 23:33:00,
2013-02-06 17:38:00,53.5,45.1,30.04,ESE,105,2.0,7.0,73,0.00,,---,0.00,VWS V13.01,2013-02-06 23:38:00,
2013-02-06 17:43:00,53.3,44.9,30.04,East,98,5.0,7.0,73,0.00,,---,0.00,VWS V13.01,2013-02-06 23:43:00,
2013-02-06 17:48:00,53.2,44.8,30.04,ESE,111,0.0,9.0,73,0.00,,---,0.00,VWS V13.01,2013-02-06 23:48:00,
2013-02-06 17:53:00,53.1,45.0,30.04,SE,139,2.0,9.0,74,0.00,,---,0.00,VWS V13.01,2013-02-06 23:53:00,
2013-02-06 17:58:00,53.1,45.0,30.05,ESE,123,0.0,9.0,74,0.00,,---,0.00,VWS V13.01,2013-02-06 23:58:00,
2013-02-06 18:03:00,52.9,44.8,30.05,SE,145,5.0,9.0,74,0.00,,---,0.00,VWS V13.01,2013-02-07 00:03:00,
2013-02-06 18:08:00,52.8,44.8,30.05,SE,133,0.0,4.0,74,0.00,,---,0.00,VWS V13.01,2013-02-07 00:08:00,
2013-02-06 18:13:00,52.8,44.8,30.05,SE,136,4.0,7.0,74,0.00,,---,0.00,VWS V13.01,2013-02-07 00:13:00,
2013-02-06 18:18:00,52.6,44.9,30.05,ESE,103,2.0,7.0,75,0.00,,---,0.00,VWS V13.01,2013-02-07 00:18:00,
2013-02-06 18:23:00,52.6,44.9,30.06,ESE,103,1.0,7.0,75,0.00,,---,0.00,VWS V13.01,2013-02-07 00:23:00,
2013-02-06 18:29:00,52.5,44.8,30.06,SE,146,3.0,7.0,75,0.00,,---,0.00,VWS V13.01,2013-02-07 00:29:00,
2013-02-06 18:33:00,52.4,44.7,30.06,SE,138,3.0,7.0,75,0.00,,---,0.00,VWS V13.01,2013-02-07 00:33:00,
2013-02-06 18:39:00,52.3,44.6,30.06,SE,125,0.0,7.0,75,0.00,,---,0.00,VWS V13.01,2013-02-07 00:39:00,
2013-02-06 18:44:00,52.2,44.5,30.05,SE,130,0.0,7.0,75,0.00,,---,0.00,VWS V13.01,2013-02-07 00:44:00,
2013-02-06 18:49:00,52.1,44.8,30.05,SE,132,5.0,10.0,76,0.00,,---,0.00,VWS V13.01,2013-02-07 00:49:00,
2013-02-06 18:54:00,52.0,44.7,30.06,ESE,116,3.0,10.0,76,0.00,,---,0.00,VWS V13.01,2013-02-07 00:54:00,
2013-02-06 18:59:00,51.9,44.6,30.06,SE,125,4.0,10.0,76,0.00,,---,0.00,VWS V13.01,2013-02-07 00:59:00,
2013-02-06 19:04:00,51.9,44.6,30.06,ESE,121,1.0,10.0,76,0.00,,---,0.00,VWS V13.01,2013-02-07 01:04:00,
2013-02-06 19:09:00,51.8,44.5,30.06,SE,124,3.0,10.0,76,0.00,,---,0.00,VWS V13.01,2013-02-07 01:09:00,
2013-02-06 19:14:00,51.8,44.5,30.06,SSE,162,0.0,10.0,76,0.00,,---,0.00,VWS V13.01,2013-02-07 01:14:00,
2013-02-06 19:19:00,51.7,44.4,30.06,ESE,122,3.0,12.0,76,0.00,,---,0.00,VWS V13.01,2013-02-07 01:19:00,
2013-02-06 19:24:00,51.7,44.7,30.06,ESE,113,3.0,12.0,77,0.00,,---,0.00,VWS V13.01,2013-02-07 01:24:00,
2013-02-06 19:29:00,51.7,44.7,30.06,ESE,121,2.0,12.0,77,0.00,,---,0.00,VWS V13.01,2013-02-07 01:29:00,
2013-02-06 19:34:00,51.7,44.7,30.06,ESE,116,2.0,12.0,77,0.00,,---,0.00,VWS V13.01,2013-02-07 01:34:00,
2013-02-06 19:39:00,51.6,44.6,30.06,East,84,4.0,14.0,77,0.00,,---,0.00,VWS V13.01,2013-02-07 01:39:00,
2013-02-06 19:44:00,51.6,44.6,30.06,East,96,0.0,14.0,77,0.00,,---,0.00,VWS V13.01,2013-02-07 01:44:00,
2013-02-06 19:49:00,51.6,44.6,30.06,SE,132,0.0,14.0,77,0.00,,---,0.00,VWS V13.01,2013-02-07 01:49:00,
2013-02-06 19:54:00,51.5,44.5,30.07,East,100,4.0,14.0,77,0.00,,---,0.00,VWS V13.01,2013-02-07 01:54:00,
2013-02-06 19:59:00,51.5,44.5,30.06,SE,136,2.0,14.0,77,0.00,,---,0.00,VWS V13.01,2013-02-07 01:59:00,
2013-02-06 20:04:00,51.4,44.4,30.07,ESE,107,5.0,14.0,77,0.00,,---,0.00,VWS V13.01,2013-02-07 02:04:00,
2013-02-06 20:09:00,51.3,44.7,30.07,ESE,111,0.0,6.0,78,0.00,,---,0.00,VWS V13.01,2013-02-07 02:09:00,
2013-02-06 20:14:00,51.3,45.0,30.07,ESE,115,6.0,9.0,79,0.00,,---,0.00,VWS V13.01,2013-02-07 02:14:00,
2013-02-06 20:19:00,51.2,44.9,30.07,ESE,114,0.0,9.0,79,0.00,,---,0.00,VWS V13.01,2013-02-07 02:19:00,
2013-02-06 20:24:00,51.0,45.1,30.07,ESE,107,2.0,9.0,80,0.00,,---,0.00,VWS V13.01,2013-02-07 02:24:00,
2013-02-06 20:29:00,50.9,45.0,30.07,ESE,123,3.0,9.0,80,0.00,,---,0.00,VWS V13.01,2013-02-07 02:29:00,
2013-02-06 20:34:00,50.8,44.9,30.07,ENE,75,3.0,9.0,80,0.00,,---,0.00,VWS V13.01,2013-02-07 02:34:00,
2013-02-06 20:39:00,50.7,45.1,30.07,ENE,76,0.0,5.0,81,0.00,,---,0.00,VWS V13.01,2013-02-07 02:39:00,
2013-02-06 20:44:00,50.6,45.0,30.06,ESE,119,2.0,8.0,81,0.00,,---,0.00,VWS V13.01,2013-02-07 02:44:00,
2013-02-06 20:49:00,50.5,45.2,30.06,NE,41,2.0,11.0,82,0.00,,---,0.00,VWS V13.01,2013-02-07 02:49:00,
2013-02-06 20:54:00,50.3,45.0,30.06,SE,132,2.0,11.0,82,0.00,,---,0.00,VWS V13.01,2013-02-07 02:54:00,
2013-02-06 20:59:00,50.3,45.3,30.06,South,175,0.0,11.0,83,0.00,,---,0.00,VWS V13.01,2013-02-07 02:59:00,
2013-02-06 21:04:00,50.2,45.2,30.06,ESE,112,3.0,11.0,83,0.00,,---,0.00,VWS V13.01,2013-02-07 03:04:00,
2013-02-06 21:09:00,50.2,45.2,30.05,ESE,111,2.0,6.0,83,0.00,,---,0.00,VWS V13.01,2013-02-07 03:09:00,
2013-02-06 21:14:00,50.1,45.5,30.05,ESE,107,5.0,6.0,84,0.00,,---,0.00,VWS V13.01,2013-02-07 03:14:00,
2013-02-06 21:20:00,50.0,45.4,30.05,ESE,107,2.0,7.0,84,0.01,,---,0.01,VWS V13.01,2013-02-07 03:20:00,
2013-02-06 21:25:00,49.9,45.3,30.05,ENE,71,4.0,7.0,84,0.01,,---,0.01,VWS V13.01,2013-02-07 03:25:00,
2013-02-06 21:30:00,49.7,45.4,30.05,East,84,2.0,7.0,85,0.01,,---,0.01,VWS V13.01,2013-02-07 03:30:00,
2013-02-06 21:35:00,49.6,45.3,30.05,SE,130,4.0,9.0,85,0.01,,---,0.01,VWS V13.01,2013-02-07 03:35:00,
2013-02-06 21:40:00,49.5,45.2,30.04,ESE,119,3.0,6.0,85,0.01,,---,0.01,VWS V13.01,2013-02-07 03:40:00,
2013-02-06 21:45:00,49.4,45.4,30.04,East,87,2.0,10.0,86,0.01,,---,0.01,VWS V13.01,2013-02-07 03:45:00,
2013-02-06 21:50:00,49.2,45.2,30.04,East,95,3.0,10.0,86,0.01,,---,0.01,VWS V13.01,2013-02-07 03:50:00,
2013-02-06 21:55:00,49.2,45.2,30.03,East,90,2.0,10.0,86,0.01,,---,0.01,VWS V13.01,2013-02-07 03:55:00,
2013-02-06 22:00:00,49.1,45.1,30.03,ESE,118,1.0,10.0,86,0.01,,---,0.01,VWS V13.01,2013-02-07 04:00:00,
2013-02-06 22:05:00,49.0,45.3,30.03,ESE,115,8.0,10.0,87,0.01,,---,0.01,VWS V13.01,2013-02-07 04:05:00,
2013-02-06 22:10:00,48.9,45.2,30.03,East,81,5.0,11.0,87,0.01,,---,0.01,VWS V13.01,2013-02-07 04:10:00,
2013-02-06 22:15:00,48.8,45.1,30.03,ESE,123,1.0,11.0,87,0.01,,---,0.01,VWS V13.01,2013-02-07 04:15:00,
2013-02-06 22:20:00,48.8,45.1,30.03,ENE,71,7.0,11.0,87,0.01,,---,0.01,VWS V13.01,2013-02-07 04:20:00,
2013-02-06 22:25:00,48.8,45.1,30.02,ENE,68,0.0,11.0,87,0.01,,---,0.01,VWS V13.01,2013-02-07 04:25:00,
2013-02-06 22:30:00,48.7,45.0,30.03,East,101,0.0,11.0,87,0.01,,---,0.01,VWS V13.01,2013-02-07 04:30:00,
2013-02-06 22:35:00,48.7,45.0,30.03,ESE,106,5.0,11.0,87,0.01,,---,0.01,VWS V13.01,2013-02-07 04:35:00,
2013-02-06 22:40:00,48.7,45.0,30.03,East,93,2.0,5.0,87,0.00,,---,0.01,VWS V13.01,2013-02-07 04:40:00,
2013-02-06 22:45:00,48.7,45.0,30.03,East,93,3.0,5.0,87,0.00,,---,0.01,VWS V13.01,2013-02-07 04:45:00,
2013-02-06 22:50:00,48.7,45.0,30.03,ESE,102,0.0,6.0,87,0.00,,---,0.01,VWS V13.01,2013-02-07 04:50:00,
2013-02-06 22:55:00,48.6,44.9,30.03,ESE,103,0.0,6.0,87,0.00,,---,0.01,VWS V13.01,2013-02-07 04:55:00,
2013-02-06 23:00:00,48.6,44.9,30.03,ESE,102,2.0,6.0,87,0.00,,---,0.01,VWS V13.01,2013-02-07 05:00:00,
2013-02-06 23:01:00,48.6,44.9,30.03,ESE,102,3.0,6.0,87,0.00,,---,0.01,VWS V13.01,2013-02-07 05:01:00,
2013-02-06 23:02:00,48.6,44.9,30.03,ESE,103,0.0,6.0,87,0.00,,---,0.01,VWS V13.01,2013-02-07 05:02:00,
2013-02-06 23:07:00,48.6,44.9,30.03,ESE,103,0.0,2.0,87,0.00,,---,0.01,VWS V13.01,2013-02-07 05:07:00,
2013-02-06 23:12:00,48.6,44.9,30.04,ESE,103,0.0,3.0,87,0.00,,---,0.01,VWS V13.01,2013-02-07 05:12:00,
2013-02-06 23:17:00,48.6,44.9,30.03,ESE,103,0.0,3.0,87,0.00,,---,0.01,VWS V13.01,2013-02-07 05:17:00,
2013-02-06 23:22:00,48.5,44.8,30.03,ESE,102,1.0,5.0,87,0.00,,---,0.01,VWS V13.01,2013-02-07 05:22:00,
2013-02-06 23:27:00,48.5,44.8,30.03,ESE,103,0.0,5.0,87,0.00,,---,0.01,VWS V13.01,2013-02-07 05:27:00,
2013-02-06 23:32:00,48.5,44.8,30.03,ESE,102,0.0,6.0,87,0.00,,---,0.01,VWS V13.01,2013-02-07 05:32:00,
2013-02-06 23:37:00,48.5,44.8,30.03,SE,144,3.0,4.0,87,0.00,,---,0.01,VWS V13.01,2013-02-07 05:37:00,
2013-02-06 23:42:00,48.5,44.5,30.03,ESE,105,2.0,5.0,86,0.00,,---,0.01,VWS V13.01,2013-02-07 05:42:00,
2013-02-06 23:47:00,48.5,44.5,30.03,ESE,118,1.0,5.0,86,0.00,,---,0.01,VWS V13.01,2013-02-07 05:47:00,
2013-02-06 23:52:00,48.5,44.5,30.03,ESE,118,0.0,5.0,86,0.00,,---,0.01,VWS V13.01,2013-02-07 05:52:00,
2013-02-06 23:57:00,48.5,44.5,30.02,SE,133,2.0,7.0,86,0.00,,---,0.01,VWS V13.01,2013-02-07 05:57:00,